TimeCDT,TemperatureF,Dew PointF,Humidity,Sea Level PressureIn,VisibilityMPH,Wind Direction,Wind SpeedMPH,Gust SpeedMPH,PrecipitationIn,Events,Conditions,WindDirDegrees,DateUTC
12:55 AM,61.0,51.1,70,30.02,10.0,NE,5.8,-,N/A,,Mostly Cloudy,50,2012-08-21 05:55:00
1:55 AM,63.0,50.0,63,30.03,10.0,ENE,5.8,-,N/A,,Mostly Cloudy,60,2012-08-21 06:55:00
2:55 AM,61.0,50.0,67,30.03,10.0,ENE,3.5,-,N/A,,Partly Cloudy,70,2012-08-21 07:55:00
3:55 AM,60.1,50.0,69,30.04,10.0,Calm,Calm,-,N/A,,Mostly Cloudy,0,2012-08-21 08:55:00
4:55 AM,60.1,50.0,69,30.04,10.0,Calm,Calm,-,N/A,,Mostly Cloudy,0,2012-08-21 09:55:00
5:55 AM,60.1,50.0,69,30.05,10.0,East,4.6,-,N/A,,Partly Cloudy,80,2012-08-21 10:55:00
6:55 AM,60.1,50.0,69,30.05,10.0,ENE,5.8,-,N/A,,Partly Cloudy,70,2012-08-21 11:55:00
7:55 AM,64.0,51.1,63,30.06,10.0,ENE,6.9,-,N/A,,Clear,70,2012-08-21 12:55:00
8:55 AM,71.1,48.9,45,30.06,10.0,East,6.9,-,N/A,,Clear,100,2012-08-21 13:55:00
9:55 AM,75.9,48.0,37,30.07,10.0,East,8.1,-,N/A,,Clear,100,2012-08-21 14:55:00
10:55 AM,79.0,46.0,31,30.07,10.0,East,6.9,-,N/A,,Clear,100,2012-08-21 15:55:00
11:55 AM,82.0,46.0,28,30.07,10.0,Variable,5.8,-,N/A,,Clear,0,2012-08-21 16:55:00
12:55 PM,82.9,46.9,28,30.06,10.0,SSE,3.5,-,N/A,,Clear,160,2012-08-21 17:55:00
1:55 PM,84.9,46.0,26,30.05,10.0,SSE,8.1,-,N/A,,Clear,160,2012-08-21 18:55:00
2:55 PM,86.0,46.0,25,30.03,10.0,Variable,4.6,-,N/A,,Clear,0,2012-08-21 19:55:00
3:55 PM,89.1,46.0,22,30.02,10.0,ESE,8.1,-,N/A,,Clear,110,2012-08-21 20:55:00
4:55 PM,88.0,45.0,22,30.01,10.0,Variable,6.9,-,N/A,,Clear,0,2012-08-21 21:55:00
5:55 PM,87.1,43.0,21,30.01,10.0,Variable,4.6,-,N/A,,Clear,0,2012-08-21 22:55:00
6:55 PM,84.9,45.0,25,30.01,10.0,NE,4.6,-,N/A,,Clear,50,2012-08-21 23:55:00
7:55 PM,77.0,44.1,31,30.02,10.0,ENE,4.6,-,N/A,,Clear,60,2012-08-22 00:55:00
8:55 PM,73.9,44.1,34,30.04,10.0,East,5.8,-,N/A,,Clear,90,2012-08-22 01:55:00
9:55 PM,69.1,44.1,40,30.05,10.0,East,5.8,-,N/A,,Clear,100,2012-08-22 02:55:00
10:55 PM,68.0,43.0,40,30.05,10.0,East,6.9,-,N/A,,Clear,100,2012-08-22 03:55:00
11:55 PM,66.0,42.1,42,30.04,10.0,ESE,5.8,-,N/A,,Clear,110,2012-08-22 04:55:00